Location: Banios
(43.0451°N, 0.2335°E)
Time: 10:46:00
(UTC+00:00)

Envisat - Pass Details

Date: 12 December 2021
Orbit: 764 x 766 km, 98.2° (Epoch: 20 January)

Event Time Altitude Azimuth Distance (km) Brightness Sun altitude
Rises 03:55:23 0° 27° (NNE) 3,241 6.6 -36.7°
Reaches altitude 10° 03:58:14 10° 43° (NE) 2,309 5.9 -36.1°
Maximum altitude 04:02:05 21° 92° (E) 1,655 5.3 -35.4°
Drops below altitude 10° 04:05:54 10° 142° (SE) 2,295 5.8 -34.7°
Sets 04:08:43 0° 158° (SSE) 3,215 6.5 -34.2°
